Tracking 30995 objects as of 7-Jul-2025
HD Live streaming from Space Station
objects crossing your sky now

STARLINK-3857

Track STARLINK-3857 now!
10-day predictions
STARLINK-3857 is classified as:


NORAD ID: 52494
Int'l Code: 2022-049AV
Perigee: 545.9 km
Apogee: 547.9 km
Inclination: 53.2 °
Period: 95.4 minutes
Semi major axis: 6917 km
RCS: Unknown
Launch date: May 6, 2022
Source: United States (US)
Launch site: AIR FORCE EASTERN TEST RANGE (AFETR)
Your satellite tracking list
METEOR 2-17 DEB
Track 1 satellite(s)




NASA's NSSDC Master Catalog

Two Line Element Set (TLE):
1 52494U 22049AV  25186.99894490 -.00000300  00000-0 -72961-6 0  9991
2 52494  53.2191  76.5577 0001458 100.2178 259.8978 15.08832093175157
Source of the keplerian elements: AFSPC